Theta_e
331 329 329 328 327 327 329 327 327 325 325 324 324 325 323 321 314 311 311 312 313 317 321 318 321 326 327 327 329 330 331 336 338 339 342 344 345 344 342 342 341 341 341 340 340 341 341 340 341 343 345 345 345 347 347 349 351 352 353 354 355 355 355 353 354 353 353 353 353 354 356 358 359 362
331 332 330 330 328 329 325 325 327 325 324 323 323 322 322 321 316 315 312 312 316 316 319 320 319 322 324 326 327 329 329 336 335 336 338 341 343 341 341 341 341 341 340 339 338 338 339 339 340 340 340 342 343 344 345 346 347 350 351 352 353 353 353 353 353 353 353 353 353 352 354 355 356 356
334 331 329 328 328 327 325 324 324 325 324 321 321 321 322 322 321 319 317 312 317 318 315 318 321 321 322 324 325 326 328 332 334 335 336 339 342 342 341 339 339 339 338 338 337 336 335 337 338 337 337 339 340 342 343 344 345 347 348 349 350 351 351 352 352 352 353 352 352 351 352 352 353 354
334 331 329 328 328 327 324 323 322 321 323 324 320 321 321 320 321 321 319 315 314 317 317 318 320 321 322 323 323 324 327 331 334 333 335 338 342 341 341 341 339 337 337 337 336 335 334 335 336 337 337 338 340 341 341 341 343 344 345 345 347 348 349 348 349 350 351 351 350 350 350 351 352 353
333 332 328 328 329 328 324 322 322 321 321 321 320 321 319 319 320 320 319 316 315 317 319 319 319 321 322 321 323 323 324 326 328 332 333 336 337 338 340 341 341 339 336 335 335 335 335 335 335 336 337 338 339 341 342 341 340 341 341 342 343 343 345 345 345 347 349 349 349 349 349 349 350 351
333 331 326 328 329 327 324 322 322 321 320 320 319 318 319 318 319 320 319 318 316 314 318 318 320 320 322 320 323 322 322 323 327 327 330 333 336 338 340 340 340 340 338 335 333 334 334 334 334 335 336 337 337 338 339 339 338 338 338 339 340 340 339 340 341 344 345 347 348 348 348 348 348 350
331 328 328 328 327 325 323 323 322 323 321 320 319 318 319 318 318 319 319 318 316 316 316 319 318 319 321 320 321 323 324 325 326 326 328 330 334 338 339 340 340 340 337 335 334 333 333 334 334 334 335 334 334 334 335 335 335 336 336 336 338 338 338 338 339 342 343 345 346 348 347 347 347 348
330 329 327 327 325 325 323 322 322 322 321 320 319 318 318 319 319 319 319 319 318 318 316 319 319 320 319 321 322 324 324 324 324 325 327 329 331 334 338 339 340 339 336 335 334 333 333 333 333 333 333 332 331 331 332 332 332 332 332 333 334 334 334 334 336 339 339 340 343 345 346 346 345 343
329 328 327 327 325 324 323 323 322 321 320 320 320 319 319 319 319 320 320 319 319 318 317 318 321 321 320 321 322 323 321 322 323 324 324 325 327 331 335 339 341 339 335 335 334 333 332 332 332 332 332 332 330 329 329 329 329 329 329 330 330 331 332 332 331 334 335 336 337 337 340 343 344 344
330 330 329 327 326 324 323 322 323 321 321 320 320 320 320 319 319 319 319 319 319 318 318 319 318 319 318 319 319 321 321 320 320 321 323 325 328 331 333 336 340 341 341 340 339 335 333 332 331 331 331 331 330 329 328 327 325 325 325 323 324 327 328 329 331 331 331 332 334 335 336 340 341 342
330 330 331 329 327 325 325 325 322 321 321 320 320 321 320 320 318 318 318 318 318 318 318 319 318 318 319 319 317 320 321 322 322 320 321 321 325 327 328 329 335 340 341 340 338 338 337 335 334 330 329 330 329 329 327 325 323 322 321 321 320 322 323 324 327 329 328 329 330 330 330 333 338 339
330 330 331 331 329 328 327 326 322 322 321 321 320 321 321 321 319 318 319 318 319 318 318 317 317 317 317 317 318 320 320 318 319 321 321 318 319 322 325 328 329 334 339 339 341 338 336 335 333 329 330 330 329 329 328 328 327 324 322 321 323 323 322 322 324 325 325 325 324 325 326 327 332 335
326 327 328 329 330 332 332 327 325 324 322 323 320 321 322 320 320 319 319 319 318 318 318 318 318 316 315 315 315 315 315 315 315 319 320 319 321 322 323 325 330 334 336 338 339 340 341 339 338 338 336 336 333 331 331 333 333 328 323 322 324 325 323 322 322 324 324 323 323 322 323 325 328 332
327 327 327 330 335 332 329 327 325 322 321 322 324 323 321 320 318 318 317 316 316 317 317 316 315 314 313 314 314 314 315 317 318 318 319 318 320 321 321 323 327 333 336 336 336 339 342 341 340 340 339 340 339 338 336 335 335 333 327 325 325 325 325 322 322 322 322 322 322 321 320 323 326 327
327 325 323 321 327 332 331 330 326 323 321 321 321 321 321 320 322 319 317 316 317 318 316 315 315 314 313 313 315 315 316 317 317 317 319 319 319 318 317 316 322 330 336 336 336 337 341 342 339 340 340 340 341 340 339 336 333 330 328 327 326 325 325 325 324 323 321 320 320 320 319 321 323 324
323 322 323 324 325 327 327 327 326 326 325 322 321 320 319 318 318 318 320 317 316 316 315 315 315 315 314 314 314 314 315 316 317 317 318 318 318 317 317 318 318 326 337 337 336 336 341 342 340 339 340 341 342 342 337 334 332 329 328 327 326 326 325 325 327 326 324 322 322 323 323 323 324 324
323 324 324 325 325 326 328 330 327 325 325 323 321 319 318 319 319 320 320 317 319 320 318 317 316 316 315 314 314 316 317 318 316 316 316 317 318 319 318 319 321 325 333 335 335 333 337 341 338 338 341 341 342 343 336 333 331 329 328 327 327 326 326 325 326 326 325 324 323 323 323 322 322 322
324 324 325 324 324 324 325 324 324 324 323 323 323 324 324 324 323 320 319 319 318 319 321 319 317 317 317 315 316 318 318 317 316 315 315 316 316 317 318 320 322 324 329 331 334 331 334 339 339 338 340 342 341 342 338 332 330 329 327 327 326 325 325 325 325 325 325 324 322 322 320 319 319 320
324 325 325 323 323 324 324 324 324 323 323 323 322 321 322 323 323 324 325 324 322 322 322 320 319 318 318 317 317 318 318 318 318 318 317 317 317 318 320 321 323 324 328 331 332 327 332 336 337 339 341 343 342 343 336 332 330 328 326 326 326 325 324 324 325 324 323 323 322 320 319 318 316 316
323 324 324 323 323 323 322 321 321 322 324 321 320 319 320 320 322 322 320 319 321 322 322 321 320 319 318 315 317 318 317 317 318 319 320 319 318 317 315 315 319 320 324 328 328 328 331 337 337 338 342 344 343 345 346 333 328 327 326 326 325 324 323 323 324 323 323 323 322 320 317 314 313 313
322 323 323 323 322 322 322 321 317 316 318 318 318 318 318 318 318 319 322 320 317 316 313 312 312 313 313 314 313 313 313 317 317 318 316 315 316 315 313 315 316 317 321 326 331 331 330 336 337 337 340 341 341 344 347 344 329 327 325 324 324 323 322 322 321 322 322 322 322 320 318 314 313 313
319 321 327 327 323 321 320 317 313 314 317 317 316 316 315 316 317 319 322 322 322 317 315 315 316 316 316 315 314 315 315 315 316 317 314 316 317 314 315 314 316 318 321 325 334 333 332 337 340 337 336 336 331 336 340 342 335 327 324 324 323 321 321 321 320 321 321 322 321 319 316 313 312 317
316 317 321 324 318 317 319 311 312 312 313 316 316 315 316 317 317 318 320 319 318 317 318 319 320 319 318 320 320 321 316 316 319 322 321 321 318 315 316 316 317 316 319 326 337 333 333 336 338 338 333 332 333 336 338 338 336 332 331 329 327 321 321 319 317 316 318 319 319 319 314 311 314 322
314 314 316 320 314 311 309 307 306 306 306 311 315 316 316 317 316 319 316 316 316 317 319 318 319 319 319 319 319 319 319 321 325 321 322 322 320 317 317 318 318 316 319 329 339 335 335 338 337 342 338 332 329 333 336 337 338 336 335 332 331 323 322 320 316 314 313 314 315 316 313 311 316 325
312 313 315 317 316 308 307 304 302 301 303 306 313 317 314 314 314 310 310 315 317 318 319 319 319 318 318 317 318 318 318 320 321 322 321 323 321 319 318 318 319 319 323 331 336 339 333 336 336 337 335 335 333 335 336 338 337 335 336 336 334 327 328 326 323 320 312 311 311 312 311 312 314 325
311 312 313 316 315 308 304 301 300 301 303 307 315 313 305 305 308 312 317 317 318 317 317 316 317 316 316 316 316 317 318 319 320 320 322 322 321 322 322 321 319 319 321 329 330 337 334 332 336 335 334 332 333 334 335 334 335 333 332 335 337 330 329 326 325 322 319 318 317 313 314 311 315 318
311 312 313 317 315 303 299 299 303 307 309 311 310 302 304 306 308 312 315 316 315 315 315 315 314 314 314 314 314 316 316 317 318 320 322 322 322 322 323 324 323 322 325 333 338 337 334 331 335 336 333 334 333 330 330 334 335 336 333 331 332 330 330 330 327 324 322 321 321 311 310 310 313 317
311 312 311 312 304 299 296 300 305 306 308 310 303 304 306 308 311 314 313 312 312 313 312 312 312 312 314 314 314 316 317 317 318 320 322 321 323 322 322 323 325 324 324 326 329 335 336 332 333 335 336 331 330 329 330 332 337 336 334 334 331 330 331 331 328 327 325 324 320 316 316 314 316 318
312 309 303 302 303 303 302 301 307 311 310 307 306 306 307 312 312 311 311 311 310 309 309 310 311 311 312 313 315 316 317 319 319 320 321 322 321 323 323 322 323 324 326 327 328 333 337 336 334 335 334 335 334 336 336 333 337 337 336 333 333 332 332 333 331 327 325 324 320 319 320 319 318 320
308 306 306 309 309 310 313 314 313 312 312 310 309 310 310 311 310 309 309 309 308 307 308 309 310 310 311 313 314 317 317 317 317 318 319 320 319 319 322 322 322 323 325 328 330 336 337 337 337 334 333 331 332 331 330 330 333 337 337 336 337 335 335 335 333 330 328 325 323 322 324 325 323 322
307 310 313 312 309 309 311 312 311 310 310 310 309 308 308 309 310 309 308 308 307 308 308 309 310 310 311 313 314 313 314 315 317 318 319 319 318 318 318 323 322 324 327 330 334 337 337 338 338 335 331 329 328 331 333 333 331 334 338 339 336 332 334 336 335 333 331 329 327 326 328 329 327 327
306 309 312 312 314 313 309 308 307 306 307 308 309 306 306 308 310 310 309 309 308 307 308 309 310 310 310 310 311 312 313 314 316 317 318 318 318 318 317 314 314 317 320 325 325 325 332 337 336 335 335 332 330 332 335 335 334 333 333 334 336 338 337 336 336 335 335 332 329 328 330 331 329 327
306 309 310 309 307 306 307 306 304 304 303 305 305 305 304 306 306 305 305 303 304 305 307 307 308 308 308 309 310 311 311 312 314 315 316 317 317 318 317 314 313 314 314 316 318 321 323 329 339 336 332 325 330 335 336 331 331 331 331 331 332 333 337 339 338 337 335 332 331 331 331 333 334 331
301 306 304 304 304 303 302 303 303 303 301 302 302 302 304 305 304 304 304 303 303 305 306 306 306 306 307 307 308 309 310 311 313 313 313 315 316 316 316 314 313 314 315 314 315 316 318 323 328 325 323 321 318 318 323 328 327 328 328 330 330 330 332 335 337 338 336 334 333 331 331 333 336 337
305 304 302 301 302 302 301 302 302 301 300 300 300 300 301 301 302 303 302 301 303 305 305 305 305 305 306 306 307 307 309 309 311 312 313 314 315 314 315 315 314 314 313 314 314 315 316 317 322 325 324 323 321 318 318 318 320 320 327 329 331 331 332 334 337 334 336 335 335 332 332 333 334 338
302 301 299 300 299 300 299 300 301 300 299 299 298 298 299 299 301 300 300 300 301 303 303 303 304 304 304 305 306 307 308 308 309 309 310 311 312 313 313 314 316 315 314 313 314 315 316 315 315 318 323 324 323 319 314 315 315 314 320 325 330 334 336 336 337 336 335 334 334 333 330 330 333 336
300 300 299 298 298 298 298 298 300 300 299 298 298 297 298 297 297 298 299 300 301 303 303 303 302 303 304 305 305 306 307 307 306 308 308 309 310 311 310 312 314 315 315 315 315 315 315 315 314 312 315 321 322 317 315 318 312 311 310 314 321 330 333 332 332 332 334 335 334 333 332 332 333 335
299 299 299 300 299 298 300 300 300 300 300 300 299 299 298 297 296 297 299 298 299 300 301 300 301 302 302 303 303 303 304 306 307 306 307 307 307 308 308 309 310 311 314 316 315 314 315 315 315 314 313 314 318 313 312 314 315 314 308 309 317 323 330 331 331 333 333 334 333 334 332 331 332 334
300 301 300 299 299 299 299 299 300 299 298 298 298 297 297 295 295 297 297 298 298 298 298 299 300 301 301 301 302 302 302 304 304 305 306 306 307 307 307 308 308 309 312 314 315 314 314 314 315 314 313 312 311 312 313 312 312 316 312 306 312 319 319 324 329 334 334 332 332 331 327 327 325 326
302 302 301 301 300 298 299 299 298 297 296 297 295 296 294 295 294 295 296 297 297 297 297 298 300 299 299 300 300 301 301 303 304 304 305 305 307 308 307 308 308 308 309 312 313 314 313 314 315 315 316 315 316 318 319 317 318 319 318 313 304 309 314 316 316 321 330 333 333 330 328 329 328 327
303 300 299 301 299 298 298 297 296 296 294 294 294 296 293 292 292 293 295 295 297 295 296 296 297 297 298 298 298 299 299 301 301 303 305 305 306 307 309 308 306 307 307 308 311 313 314 316 320 317 320 318 320 319 317 315 313 315 316 317 309 306 307 311 312 311 314 328 330 329 328 328 327 328
298 298 298 298 297 297 296 295 294 292 292 292 291 292 291 292 292 294 294 295 293 295 294 294 295 297 297 298 297 299 298 298 299 301 302 302 302 304 307 307 305 305 306 307 308 312 317 320 323 318 317 317 316 314 312 314 314 315 317 318 319 312 310 309 309 311 311 314 328 329 325 326 327 327
301 297 297 299 298 296 295 294 292 291 290 290 290 290 290 289 288 289 289 290 291 293 292 293 294 295 296 297 297 298 298 297 298 298 300 301 302 302 303 305 306 306 306 307 310 313 316 319 320 317 315 314 314 315 311 313 315 316 316 316 317 318 319 315 311 311 312 312 311 311 314 320 323 322
296 297 295 295 295 294 293 292 290 289 289 289 290 289 290 287 287 287 288 289 290 290 292 292 293 294 294 296 296 296 298 298 297 298 298 300 301 301 302 304 306 305 306 307 308 310 313 317 319 319 315 313 314 313 312 313 313 315 316 317 317 317 316 318 318 315 315 314 312 312 312 311 310 311
297 295 295 294 294 293 292 291 290 288 287 287 287 288 289 287 288 287 287 288 289 290 291 291 292 292 293 296 295 295 297 299 298 298 299 299 299 300 300 302 302 303 304 306 306 308 310 314 317 318 317 318 316 314 318 316 314 314 315 315 315 316 317 316 315 314 314 315 312 311 311 313 313 312
Wind_Speed
4 4 5 5 4 3 2 3 3 2 1 1 1 1 1 1 4 6 5 6 5 4 5 5 2 5 7 9 9 10 10 12 16 11 11 10 9 12 17 18 18 19 21 22 22 23 23 23 23 22 22 22 22 23 24 24 24 24 24 24 24 23 23 22 22 22 21 21 21 21 21 20 20 19
5 5 5 4 4 3 3 4 3 3 2 2 1 2 2 3 2 3 6 8 2 6 5 4 6 7 10 9 9 9 11 14 17 12 12 11 10 14 16 17 18 20 21 22 22 22 23 23 23 23 23 23 24 24 23 23 23 24 24 24 24 23 23 22 22 22 22 21 21 21 21 20 20 19
4 6 6 5 5 4 5 4 3 3 2 2 2 2 3 3 4 6 6 8 3 1 7 7 8 10 10 10 10 10 10 12 15 12 11 11 14 18 15 17 18 20 21 22 21 21 22 23 23 23 24 24 24 24 23 23 23 23 23 23 23 23 23 22 22 22 21 21 21 21 20 20 19 19
6 6 7 2 3 5 5 4 3 3 3 4 3 4 4 5 5 5 6 8 10 3 7 8 10 11 11 10 11 11 9 10 17 11 11 12 16 13 11 16 19 20 22 22 22 23 23 24 25 24 24 24 24 23 23 23 23 23 23 23 23 23 23 23 22 22 21 21 21 20 20 20 19 19
6 6 3 4 9 6 5 5 4 4 5 4 4 5 4 5 5 5 7 9 10 6 5 7 8 10 10 10 8 11 10 10 10 13 11 12 11 11 11 11 16 20 21 22 23 23 23 24 25 25 25 24 23 23 23 23 23 23 23 22 22 22 23 22 22 22 21 21 21 20 20 19 19 18
6 4 6 6 8 8 4 2 4 5 5 5 6 5 5 5 6 6 6 7 8 11 7 8 6 9 8 11 8 10 12 11 10 12 12 10 10 11 11 11 11 18 20 21 22 23 24 24 24 25 25 24 24 23 23 23 22 22 22 22 22 22 22 22 22 21 21 21 21 21 20 19 19 18
5 5 6 7 3 6 3 6 7 5 5 6 6 6 5 6 7 7 7 7 9 10 10 8 10 8 9 9 12 11 11 11 10 11 12 11 10 10 11 11 10 15 18 20 21 22 23 24 25 25 25 24 24 24 23 22 22 21 22 21 21 21 21 22 21 21 21 21 21 21 20 19 18 18
4 6 6 6 5 7 8 7 7 8 6 6 7 6 6 6 8 8 7 7 8 7 10 10 10 10 10 11 10 10 11 11 10 9 11 12 12 11 11 11 11 13 18 19 20 21 22 23 24 24 24 24 23 22 21 21 21 21 21 21 20 21 21 21 21 21 21 21 21 20 20 19 18 17
5 5 7 7 6 7 7 8 7 9 6 2 4 6 6 7 7 7 7 8 7 8 10 9 8 9 10 10 11 10 11 12 10 10 11 12 12 12 11 10 10 15 18 18 20 20 21 22 23 24 23 23 22 21 21 20 20 20 20 20 20 20 20 20 20 21 20 20 20 20 19 19 18 18
5 6 7 7 7 7 9 9 8 1 2 5 9 10 9 8 7 7 8 7 7 7 9 10 11 9 11 11 10 10 11 12 13 12 12 10 10 10 11 10 9 8 8 8 10 14 17 20 23 23 23 23 22 21 20 20 20 20 20 20 19 20 20 20 20 20 20 20 20 19 19 19 18 18
6 7 7 7 7 8 9 10 4 7 8 7 10 12 9 8 7 7 7 6 7 8 9 9 10 11 10 9 13 11 9 12 10 12 13 13 9 9 9 12 10 9 10 13 17 15 13 15 15 19 23 23 23 21 21 21 20 19 20 19 19 20 20 20 20 20 20 20 19 19 19 18 18 18
7 7 7 7 7 8 8 6 7 8 8 7 9 10 8 8 7 8 6 5 7 8 9 10 10 9 11 11 10 10 10 11 11 7 9 13 14 13 11 10 12 11 10 11 9 11 14 15 17 19 20 23 23 22 21 22 20 21 20 19 20 20 21 21 20 20 19 19 19 19 18 18 18 18
6 6 7 7 7 8 10 12 13 12 11 8 9 9 8 8 8 6 4 7 7 7 8 10 10 10 11 11 12 12 11 12 13 13 11 13 12 12 13 13 11 11 11 11 11 10 9 10 11 10 11 12 17 19 22 17 21 21 19 20 21 21 21 20 20 19 19 19 19 18 18 18 18 17
6 6 6 6 10 11 13 13 13 13 13 13 11 9 7 7 5 6 7 7 6 6 8 9 10 11 11 12 12 13 12 13 13 13 12 13 12 12 13 13 11 9 10 11 12 11 9 10 10 10 12 12 13 11 11 12 13 16 19 20 20 20 20 20 20 19 19 19 19 19 18 18 18 18
7 6 5 5 6 8 8 9 10 10 12 12 14 15 11 6 7 6 8 9 5 7 8 9 10 11 13 13 12 12 14 13 13 12 12 13 12 12 12 16 14 8 9 10 10 12 9 9 11 10 11 11 10 10 11 15 18 18 18 20 20 20 20 20 20 19 19 19 19 19 19 19 19 19
5 6 7 5 5 5 7 7 6 7 10 12 13 12 11 13 13 12 11 7 8 8 8 9 11 12 13 14 12 13 13 14 14 14 13 13 13 14 14 13 14 11 6 9 10 12 9 8 10 11 11 11 10 11 14 17 17 18 19 20 21 21 20 20 20 20 19 20 19 19 19 19 19 18
5 6 6 7 6 5 9 8 5 5 7 9 10 10 10 11 13 14 13 12 12 9 9 10 12 12 13 13 13 13 15 15 17 16 14 12 13 13 15 15 13 15 8 10 11 11 10 7 9 11 11 10 9 11 14 17 18 18 19 19 20 20 20 20 20 20 20 20 20 20 19 19 19 18
5 6 6 6 7 6 5 5 5 5 6 6 6 5 5 6 10 12 12 14 16 13 9 10 12 14 12 14 15 17 15 16 16 16 16 15 15 15 16 15 15 15 10 12 10 11 11 7 8 10 10 9 9 10 12 18 19 19 20 20 20 21 21 21 20 20 20 20 20 20 20 19 19 18
5 5 5 5 6 7 6 5 4 5 6 5 5 5 6 7 8 7 7 7 6 7 7 10 12 14 14 14 16 16 15 16 16 16 18 18 17 16 16 15 15 14 11 10 9 11 9 6 8 10 8 7 9 9 12 17 19 20 20 21 20 20 21 21 21 20 20 20 21 21 20 19 18 18
3 4 5 5 6 6 6 7 7 7 6 5 5 5 6 8 7 5 7 11 12 11 10 10 12 13 16 20 19 19 19 17 17 17 18 16 15 14 14 16 12 12 11 10 12 11 11 6 8 9 8 7 8 8 8 13 19 20 20 20 20 21 20 20 21 21 21 20 20 19 19 18 18 18
3 3 4 4 5 6 6 6 5 1 4 4 5 7 8 7 5 7 7 11 13 14 16 18 20 22 23 24 24 26 28 22 20 16 17 16 14 13 17 15 12 14 10 9 11 11 11 8 8 8 6 6 6 6 8 8 15 19 19 20 21 21 20 20 20 20 20 20 19 18 18 18 17 16
3 4 9 8 5 5 5 5 5 6 5 5 6 6 6 6 6 7 7 6 7 11 15 17 20 20 21 22 23 23 24 26 22 16 19 19 13 14 12 14 12 11 10 11 10 10 12 7 7 7 3 1 1 0 2 4 7 15 16 20 21 20 19 19 19 19 20 19 18 17 17 16 14 10
2 4 5 6 5 4 3 3 4 3 4 5 5 4 5 7 7 8 7 8 10 10 10 11 12 13 15 15 16 18 24 25 22 17 17 16 13 12 11 13 10 10 12 11 11 11 9 9 7 7 4 5 4 4 4 3 4 6 6 8 9 13 15 15 15 16 17 17 17 17 17 16 14 9
5 4 4 5 2 2 3 6 7 7 5 5 4 4 5 6 7 6 8 10 9 10 10 11 12 13 14 15 16 17 18 18 18 17 15 14 11 11 12 13 13 12 8 5 12 10 7 7 7 8 7 5 4 4 4 4 6 7 7 7 7 10 12 11 9 12 11 12 14 15 16 17 16 9
4 5 5 5 2 2 6 6 6 4 4 5 4 4 5 6 9 10 9 10 12 10 11 11 11 11 12 14 15 16 17 16 16 16 16 12 10 10 11 12 11 12 11 6 6 10 8 7 7 5 5 3 2 4 3 6 5 6 8 9 8 6 7 7 5 5 7 11 13 15 15 17 19 14
3 3 4 5 2 3 5 5 3 3 4 5 2 4 7 9 10 8 7 7 7 8 8 10 11 11 12 14 15 16 17 17 18 18 16 13 11 12 11 12 11 11 12 8 7 7 4 5 7 7 5 4 3 3 5 4 3 2 2 5 7 8 8 8 6 6 6 6 7 9 12 16 16 17
3 3 3 4 4 4 3 2 3 1 0 1 3 7 10 10 12 9 6 7 7 8 8 9 10 11 11 13 15 16 18 19 19 19 16 16 10 12 12 11 10 11 4 2 3 3 3 5 4 10 7 6 4 2 3 5 4 4 3 2 3 6 6 8 9 8 8 8 7 11 11 13 15 15
3 3 3 4 7 2 3 5 3 2 3 3 7 9 10 11 9 7 7 6 7 8 8 9 10 11 11 12 14 15 17 18 19 17 16 14 10 9 8 9 12 10 6 7 10 7 4 4 6 5 7 8 6 5 2 1 4 7 7 4 3 4 5 6 7 8 6 6 7 7 7 7 7 9
2 4 7 8 2 3 4 6 3 2 4 7 8 10 11 9 6 7 7 7 7 8 8 9 10 9 11 12 12 13 15 17 16 16 15 13 11 6 6 6 7 7 7 8 10 9 7 5 6 3 3 6 8 7 7 5 5 6 6 8 4 5 6 6 7 9 8 8 10 8 8 7 8 9
6 7 7 3 7 7 4 2 3 4 5 6 8 9 10 5 6 6 7 7 7 8 8 9 10 10 11 12 13 14 13 13 16 17 15 13 15 12 5 4 5 6 7 7 8 8 6 5 5 4 4 3 5 5 1 3 1 3 6 7 5 4 5 7 7 6 7 7 8 7 8 8 10 11
5 5 2 2 4 5 5 5 4 4 5 5 5 5 6 5 5 6 6 6 7 7 8 10 10 10 10 11 12 14 14 13 14 15 16 13 14 14 12 6 1 3 4 5 4 5 8 6 6 9 8 4 2 4 7 6 5 5 6 6 8 8 6 8 7 8 8 8 8 8 8 7 8 8
5 3 2 2 1 1 2 2 2 3 4 5 5 5 5 5 5 7 8 7 5 5 7 8 9 10 10 11 12 13 13 12 13 14 15 15 13 13 12 11 11 8 8 6 5 6 6 4 5 5 6 8 8 6 5 7 7 6 5 3 4 1 5 8 8 7 8 8 8 8 8 8 10 10
4 1 1 2 2 2 3 4 5 5 5 5 5 6 6 5 5 5 6 7 8 8 8 9 9 10 10 10 11 12 13 13 13 14 13 13 13 11 9 12 11 11 10 8 7 8 7 5 6 3 5 6 6 3 6 4 3 5 6 2 0 0 4 7 7 7 9 9 9 8 7 7 8 9
1 1 2 3 3 3 3 4 5 6 6 6 6 6 6 6 6 6 6 6 7 8 8 8 9 10 10 11 11 11 12 14 13 13 13 13 13 12 12 12 12 10 9 8 8 8 8 7 5 8 9 11 11 12 7 3 4 3 3 6 7 7 2 1 3 8 11 10 10 7 7 7 7 8
1 3 3 3 3 3 2 3 4 5 5 6 6 6 6 5 6 7 6 7 7 8 8 8 8 8 9 10 10 11 12 12 13 13 12 12 13 12 11 11 11 11 10 10 10 8 6 6 4 3 7 7 7 7 15 10 3 3 1 3 4 3 4 7 5 6 8 8 8 9 8 7 7 7
4 2 3 3 2 2 2 2 3 3 3 4 5 5 6 6 6 7 7 7 7 7 7 8 8 8 9 9 10 10 11 12 11 12 13 13 12 12 12 12 11 10 9 10 10 8 7 6 6 4 2 6 4 4 4 13 12 4 2 2 1 2 5 6 6 7 7 8 9 9 9 10 9 8
3 2 2 2 1 1 1 1 1 2 2 3 4 4 5 6 6 6 6 6 6 7 7 7 7 8 8 9 9 10 10 10 11 11 12 13 12 12 12 12 12 10 10 10 9 9 7 8 8 7 5 2 7 5 4 1 9 11 4 2 3 3 2 3 4 7 8 9 8 8 9 8 7 7
3 1 1 0 0 1 1 1 2 3 2 3 3 4 4 5 5 6 6 6 7 7 7 7 8 8 8 9 9 10 10 9 9 10 11 11 12 12 11 11 11 12 10 9 10 10 8 8 9 8 8 5 1 8 4 3 4 11 12 1 4 4 3 3 4 6 7 7 8 7 5 6 7 7
1 1 0 1 1 1 2 2 2 3 3 3 4 4 5 5 6 6 6 7 7 7 7 8 8 9 9 9 8 9 9 10 11 11 11 10 10 11 12 11 11 12 11 10 10 11 10 11 10 9 10 10 8 5 6 9 7 5 11 17 5 2 3 1 4 8 7 8 8 5 1 2 5 6
1 1 1 2 2 2 2 2 3 3 4 4 4 3 5 6 6 6 6 7 7 7 7 7 9 8 8 8 9 8 8 10 10 9 9 10 10 11 11 10 9 10 10 11 10 11 11 11 10 10 8 7 3 3 4 8 6 4 10 17 18 9 3 3 5 3 3 6 9 8 7 6 4 2
1 2 3 1 1 2 2 3 3 3 4 4 5 5 6 5 6 6 6 7 7 7 7 8 8 8 8 8 9 8 9 9 9 9 10 9 10 10 13 12 10 10 10 10 10 9 10 8 11 13 8 6 4 1 1 6 11 8 10 8 12 15 15 15 10 6 4 1 5 9 10 8 8 6
0 1 2 2 2 1 3 3 4 4 5 5 5 5 4 6 5 8 7 8 7 7 7 7 8 8 8 8 8 8 8 9 9 10 10 10 10 10 11 9 10 10 9 9 8 9 8 6 8 8 7 9 10 10 11 9 8 7 6 6 6 10 16 20 24 23 19 8 5 7 4 5 4 5
1 1 1 1 2 3 3 4 4 4 4 4 5 4 5 5 5 6 6 6 6 6 7 7 7 7 8 8 8 8 7 8 9 9 9 9 9 10 10 8 8 7 7 7 6 7 8 7 6 8 9 9 9 9 10 9 7 5 6 7 8 6 9 14 21 27 26 21 15 13 6 3 3 5
1 2 2 2 3 3 3 4 4 4 4 4 4 4 5 4 5 5 5 5 6 6 6 7 7 7 8 8 8 7 7 8 8 9 9 9 8 8 9 9 10 9 9 9 9 8 7 6 6 5 7 9 7 9 9 8 8 7 6 6 6 8 9 8 9 13 20 22 20 21 26 24 16 10
1 2 3 2 3 4 4 4 5 4 4 4 4 4 5 4 4 4 4 5 6 6 6 7 7 7 7 8 7 8 8 8 8 8 8 8 8 8 8 9 10 9 9 8 8 9 8 6 5 5 5 6 6 7 8 7 7 7 8 8 9 8 8 7 9 11 11 13 14 19 23 23 22 19
Wind_Direction
190 187 186 190 214 230 189 155 156 135 108 167 193 183 220 256 291 318 307 321 322 314 335 330 298 316 308 305 304 300 293 292 293 287 281 270 253 244 237 233 230 232 236 237 237 234 230 228 227 226 226 228 230 229 228 229 231 233 235 233 232 231 230 230 231 230 230 229 229 230 230 230 230 230
195 196 199 193 201 207 174 178 168 135 154 176 171 211 216 182 229 260 297 300 294 288 315 300 298 313 310 305 299 300 296 294 297 286 280 274 263 252 246 239 234 233 234 234 233 234 234 232 229 227 225 226 228 230 230 229 230 231 232 232 233 232 230 229 229 230 230 230 230 229 229 229 229 229
203 203 205 203 198 188 186 176 168 138 163 184 197 195 200 227 213 245 259 294 244 258 304 300 296 301 300 301 300 295 294 293 294 289 280 275 266 261 256 247 239 237 238 237 235 233 234 235 232 229 228 228 229 230 230 229 229 230 231 232 233 233 231 230 229 229 229 230 230 229 228 228 228 228
211 209 215 211 236 194 188 177 163 166 189 184 187 199 205 231 237 229 258 267 277 262 278 283 293 296 298 297 294 294 295 294 300 294 288 281 277 268 262 254 244 240 241 242 241 240 237 235 236 233 230 230 229 229 228 227 228 228 229 229 231 232 232 231 229 229 229 229 229 228 227 226 227 227
221 214 159 183 227 205 192 186 173 173 200 197 200 204 201 237 243 229 250 271 282 280 254 278 287 293 298 294 284 293 295 296 296 297 286 283 276 270 262 258 250 244 241 241 241 241 239 235 234 235 234 232 230 228 227 226 226 227 227 227 227 229 231 231 230 229 228 227 227 227 225 224 224 224
240 188 205 222 221 209 200 163 193 193 197 197 206 210 201 219 244 230 234 252 274 290 294 286 276 286 285 289 289 291 299 298 296 295 294 286 277 271 265 259 255 247 243 240 240 240 239 237 234 234 234 233 232 232 230 228 225 224 225 225 225 227 228 229 229 228 227 226 226 226 224 222 220 221
216 209 220 230 218 59 16 250 225 219 216 210 204 219 208 218 232 240 228 244 269 279 288 290 297 295 295 289 299 296 290 289 290 291 294 297 292 284 273 263 257 250 244 239 236 237 237 236 235 234 234 234 234 233 231 229 227 224 223 222 223 224 226 226 226 226 225 224 225 224 223 221 218 217
224 224 229 236 179 167 206 225 218 218 221 213 212 221 222 216 231 234 234 228 250 268 284 291 294 297 299 295 289 292 289 292 292 287 289 290 288 284 278 269 260 253 244 238 235 234 234 234 234 234 234 233 233 233 232 230 229 227 224 222 221 222 224 225 224 223 223 223 223 223 222 220 217 214
237 230 228 234 205 202 214 226 225 222 223 306 316 258 238 228 232 236 234 241 239 258 274 282 283 289 286 284 290 293 298 297 293 286 284 288 289 286 278 269 257 252 247 240 235 233 232 232 232 234 234 233 233 232 231 231 230 229 227 224 221 221 222 224 224 222 222 222 222 222 222 220 217 214
237 237 233 232 219 208 215 226 228 144 107 195 233 240 237 231 230 234 243 247 252 257 268 281 291 286 291 295 288 295 296 297 300 299 291 284 280 288 293 282 270 255 244 239 235 236 236 233 230 232 235 236 233 231 231 230 229 227 226 224 221 220 221 221 221 221 222 222 222 221 220 220 217 215
247 240 238 232 222 225 230 239 188 184 214 213 232 242 240 239 233 235 241 242 257 265 278 281 279 287 284 282 295 298 293 290 287 294 299 296 292 289 290 291 284 269 258 245 237 234 227 225 227 229 230 232 232 231 231 230 227 226 224 223 221 220 220 219 219 219 218 219 219 219 218 218 217 217
245 245 244 240 235 230 234 222 204 214 224 220 233 238 230 233 233 237 237 252 258 271 278 283 290 286 292 294 283 290 300 299 292 274 289 295 299 298 288 275 282 279 265 263 255 238 235 234 229 229 229 229 229 230 230 229 227 226 223 221 221 219 219 218 218 217 216 216 216 216 214 214 216 217
251 255 252 252 251 243 238 218 215 220 221 223 234 239 216 225 227 239 229 244 256 269 278 285 287 290 292 290 298 303 303 299 297 302 293 285 283 285 288 285 271 264 264 260 251 246 226 226 225 223 226 227 224 229 226 228 227 225 222 221 220 219 217 216 216 215 215 213 213 212 211 211 212 215
270 257 256 259 256 246 237 230 232 234 230 225 223 230 216 226 240 234 240 261 269 280 281 286 292 292 288 292 296 297 294 291 293 292 290 286 290 288 283 280 270 258 248 251 253 246 228 222 230 221 226 229 218 222 217 221 221 221 219 220 220 218 215 214 214 213 212 211 209 208 208 208 209 211
267 277 273 263 264 261 264 269 268 259 256 250 242 245 243 235 228 239 256 257 266 266 279 283 284 282 288 289 292 294 296 293 291 291 289 285 285 284 288 290 294 264 247 251 251 253 231 212 226 224 223 226 218 212 219 214 216 218 215 215 215 214 213 212 211 210 209 208 207 206 206 207 208 209
261 264 269 268 259 263 262 266 275 274 264 256 254 248 236 239 238 227 230 262 281 270 273 278 279 286 287 293 298 296 296 295 294 289 285 279 277 275 272 268 269 278 270 268 263 260 247 211 221 228 225 223 218 215 213 212 209 211 213 209 209 210 210 209 207 206 206 206 206 206 206 206 207 208
256 263 266 274 274 264 272 273 265 263 270 270 267 266 263 261 262 268 258 221 234 254 257 269 280 282 289 293 291 289 290 292 289 291 283 276 268 263 263 262 267 270 268 269 256 257 256 225 220 229 228 219 214 213 208 204 202 204 207 207 206 206 206 205 204 204 204 204 205 206 205 205 205 205
268 264 262 272 282 283 276 265 263 260 257 261 269 276 269 263 267 264 258 253 250 245 250 264 273 279 283 285 286 286 285 288 288 286 283 280 272 265 259 261 260 266 266 269 273 263 252 231 239 237 231 213 213 211 201 198 200 199 200 203 203 202 202 202 203 203 203 203 204 204 204 203 203 202
263 269 265 259 261 276 279 265 243 249 255 261 266 261 256 258 264 262 259 254 255 264 268 269 272 278 282 280 281 283 281 279 279 278 276 275 272 268 267 264 256 264 257 258 257 255 257 224 226 239 237 214 216 212 211 197 195 195 197 200 201 200 200 200 200 201 203 204 204 203 203 201 199 199
277 276 272 271 278 273 271 270 248 243 247 234 233 249 266 274 271 261 250 258 264 267 271 274 276 282 282 281 283 282 282 283 280 277 275 268 262 257 253 253 253 252 250 221 236 252 258 226 220 235 233 221 221 210 210 198 193 194 195 197 197 198 198 199 199 201 203 204 204 201 200 197 196 195
299 293 288 287 282 276 269 265 267 240 181 204 234 253 268 275 280 275 272 262 258 263 269 272 274 275 278 279 279 280 281 283 283 280 276 265 253 241 244 245 243 246 244 229 222 235 251 231 217 228 223 215 214 206 205 195 196 192 193 194 195 195 197 198 200 201 202 202 201 199 196 195 193 189
303 306 319 316 294 274 251 237 236 177 207 249 261 275 276 279 278 277 276 286 287 283 281 281 282 284 287 289 291 290 290 291 289 283 279 275 252 232 226 238 232 246 242 233 211 221 235 231 207 210 211 189 39 181 190 183 194 194 193 194 192 193 195 197 199 199 201 200 197 193 188 185 176 167
314 322 320 316 305 289 251 235 246 244 253 260 271 264 268 278 282 280 296 301 301 302 305 300 302 303 303 307 309 307 301 297 292 285 284 281 254 226 219 225 227 239 244 228 200 217 229 221 217 196 179 204 206 221 148 146 146 174 177 187 196 198 194 198 202 202 199 195 191 186 179 171 164 167
332 323 316 324 15 356 355 334 309 298 288 269 284 283 286 291 285 305 311 297 294 293 292 293 300 303 309 312 312 312 311 309 304 302 293 283 247 218 216 215 213 224 237 211 183 209 227 208 223 197 196 175 201 175 157 198 176 179 167 165 177 180 177 176 188 195 195 192 187 180 173 167 168 145
296 305 308 308 305 301 326 319 306 277 261 255 272 301 320 310 299 300 297 296 297 296 298 302 306 312 317 316 315 314 316 316 316 313 311 290 239 220 214 212 213 224 234 229 203 196 213 199 212 181 221 196 146 150 182 187 178 171 172 167 165 160 158 166 151 149 174 181 180 176 172 172 175 172
286 288 297 299 333 322 295 300 266 231 255 256 284 308 293 296 306 309 292 292 300 300 306 311 315 318 322 322 320 319 320 323 326 326 322 306 244 223 216 207 207 214 230 224 256 225 236 221 186 177 172 181 258 151 130 144 154 144 149 179 167 162 159 149 138 138 137 142 160 174 179 179 181 181
282 291 292 292 334 327 297 253 205 166 171 24 325 320 328 328 322 316 319 318 316 316 319 318 316 318 321 323 322 322 326 326 330 328 322 317 268 221 217 217 215 228 240 323 355 15 239 260 235 181 180 161 152 149 150 143 149 134 140 145 137 149 163 152 163 150 150 163 169 172 172 181 181 181
272 288 312 308 316 266 165 183 177 58 19 351 339 340 333 332 334 332 329 329 326 325 323 320 317 320 321 319 318 323 323 320 324 322 320 333 319 222 219 215 223 232 241 271 284 284 247 227 266 252 173 158 154 167 185 58 132 164 156 134 133 142 157 159 144 127 149 141 140 149 139 156 196 180
311 312 297 301 272 124 120 182 234 305 343 342 344 343 344 348 348 342 334 331 334 333 329 318 313 317 320 313 307 309 309 311 318 332 331 340 353 342 234 219 220 227 228 239 254 264 254 231 228 275 256 179 180 190 166 165 156 167 156 139 162 175 159 163 155 161 155 152 150 157 178 166 174 188
317 307 309 42 100 82 79 61 24 7 351 337 347 351 357 352 347 344 335 338 341 335 322 315 319 318 315 315 312 314 317 327 334 335 334 345 0 3 354 191 226 228 234 234 241 259 257 231 232 188 181 170 143 127 106 97 155 156 149 176 166 111 175 162 165 154 146 153 162 171 182 186 182 169
333 315 335 125 121 107 82 60 30 360 347 341 351 348 349 339 340 339 336 331 328 323 317 318 319 316 311 309 327 332 333 334 334 337 339 350 4 6 2 17 359 280 250 229 231 256 241 233 230 183 181 171 145 160 155 188 180 196 184 169 158 183 180 169 160 161 167 161 164 167 171 169 167 184
308 291 283 117 126 84 42 23 14 353 352 349 351 345 341 333 328 337 337 332 307 302 305 305 307 313 328 337 331 329 332 334 334 340 346 353 356 6 2 22 20 9 10 12 2 339 323 251 204 201 201 187 181 175 141 164 168 165 158 178 195 233 142 175 169 164 153 147 157 179 187 178 179 189
301 289 90 43 39 31 16 12 1 356 353 0 353 346 341 333 330 334 342 345 340 330 327 329 329 328 331 333 335 335 333 337 336 341 342 350 357 356 8 25 18 16 9 1 343 337 344 316 201 148 85 22 33 105 150 146 129 151 157 164 230 217 203 173 170 155 152 159 183 181 190 189 184 185
242 75 80 39 33 21 17 14 4 357 352 354 355 348 340 343 343 346 342 341 332 331 330 327 329 334 333 334 340 339 338 335 339 339 344 348 353 358 10 17 18 9 7 358 353 356 349 342 54 98 92 75 62 44 25 81 104 96 115 170 200 215 187 325 203 172 165 183 181 177 187 198 196 189
61 63 57 38 21 20 19 21 9 2 358 356 346 345 337 337 342 344 342 342 335 333 332 330 331 331 334 334 337 340 340 340 339 340 346 353 353 359 358 8 13 11 5 359 2 359 359 350 17 90 125 113 88 50 42 28 108 30 238 204 205 195 191 207 169 182 192 179 177 183 193 197 200 199
59 54 65 47 29 23 30 21 11 360 350 341 340 337 339 342 342 345 343 336 332 330 332 334 335 335 336 337 339 340 340 340 346 346 346 355 353 355 355 359 359 360 4 7 358 351 1 17 30 26 231 149 125 117 44 44 49 22 31 330 307 225 202 202 195 174 185 175 181 182 194 201 203 192
84 67 71 80 48 31 5 331 333 344 340 332 335 337 339 333 337 333 328 325 333 336 333 331 331 335 334 339 342 343 343 347 348 347 353 351 353 354 355 353 352 349 359 7 359 354 2 23 27 42 9 139 151 128 95 109 63 51 28 313 308 312 252 213 228 185 192 184 183 187 197 193 194 188
101 116 116 130 259 292 307 322 322 328 325 337 334 334 336 334 331 332 326 343 343 340 337 337 336 335 339 342 346 346 344 344 346 355 356 354 354 352 353 351 349 347 346 358 4 3 1 24 34 26 38 27 83 119 113 30 19 20 11 317 237 281 304 248 222 197 192 188 189 200 173 185 190 178
128 171 210 233 287 268 280 298 316 327 334 339 351 350 347 349 347 341 347 349 344 342 336 338 341 337 337 339 343 347 345 347 352 352 352 351 353 350 352 352 349 349 346 0 6 6 8 25 23 25 29 39 45 32 102 104 62 52 32 37 22 358 360 305 247 227 196 179 184 167 107 57 74 113
251 238 248 254 279 278 283 321 337 347 15 15 1 6 14 2 354 351 350 353 348 342 341 340 339 335 338 342 344 343 348 353 349 345 347 346 349 351 354 351 352 352 349 359 4 9 9 14 15 12 18 33 26 345 40 95 121 90 54 41 31 33 347 68 62 342 262 191 163 154 148 135 131 145
294 296 296 274 358 5 36 32 25 32 29 23 15 22 20 8 2 360 352 356 347 344 343 342 342 340 338 340 346 347 347 347 346 345 348 349 349 351 353 353 358 356 355 1 357 2 14 356 2 4 24 32 10 261 3 57 58 43 54 53 46 42 49 66 60 51 8 318 148 158 158 161 153 151
22 348 5 65 80 40 57 53 38 41 33 24 24 19 15 13 9 3 0 358 352 348 343 343 342 341 338 338 343 346 349 348 345 344 346 349 350 349 355 0 356 349 354 353 345 336 330 335 354 6 15 32 31 39 44 46 53 45 50 56 51 46 46 52 61 56 44 4 213 162 107 94 123 161
31 29 63 75 87 73 73 71 55 52 39 31 28 18 22 14 4 6 1 357 350 348 345 340 340 340 338 333 342 345 345 348 346 343 343 346 348 349 349 350 346 337 344 345 334 326 333 341 359 13 22 39 36 43 43 31 28 29 32 42 44 36 44 46 55 61 52 34 43 68 51 107 149 178
46 92 96 93 82 83 79 79 67 52 46 35 25 22 26 19 10 3 357 350 350 347 337 338 339 341 338 332 337 343 351 348 342 342 344 340 341 343 344 345 352 356 359 358 347 345 337 345 357 3 34 41 28 42 37 28 25 16 12 26 32 36 39 40 39 54 62 40 16 53 62 62 57 58
73 114 119 101 99 88 87 78 72 57 48 33 29 23 28 21 13 1 353 353 351 345 342 340 338 336 335 333 337 349 346 345 343 341 340 341 344 349 352 353 358 359 2 354 348 349 346 342 357 3 30 34 38 47 43 40 31 23 23 21 23 26 38 32 40 50 52 68 12 35 58 60 58 50